Regional Weather Roundup
Issued by NWS

Home | Current Version | Previous Version | Graphics & Text | Print | Product List | Glossary On
Versions: 1 2 3 4 5 6 7 8 9 10 11 12 13 14 15 16 17 18 19 20 21 22 23 24 25 26 27
000
ASUS45 KTFX 161910
RWRMT
MONTANA REGIONAL WEATHER ROUNDUP
NATIONAL WEATHER SERVICE GREAT FALLS MT
1200 PM MST SAT DEC 16 2017

NOTE: "FAIR" INDICATES FEW OR NO CLOUDS BELOW 12000 FEET WITH NO
SIGNIFICANT WEATHER AND/OR OBSTRUCTIONS TO VISIBILITY.

MTZ001>007-043-162000-
WEST OF THE DIVIDE

CITY           SKY/WX    TMP DP  RH WIND       PRES   REMARKS
KALISPELL      PTSUNNY   29  26  89 S3        30.10S
MISSOULA       CLOUDY    32  26  78 N6        30.10R WCI  26
BUTTE          CLOUDY    28  18  66 NW12      29.97R WCI  18
MULLAN PASS    HAZE      20  15  81 CALM      30.02R VSB 1/4
ANACONDA         N/A     27  21  80 NE6       30.01S WCI  20
DEER LODGE       N/A     28  23  80 N10       30.03S WCI  19
EUREKA           N/A     28  21  74 MISG      30.15S
HAMILTON         N/A     30  28  93 CALM      30.08S
LIBBY            N/A     32  25  74 NE3       30.14S
PLAINS           N/A     31  27  85 W1        30.15R
RONAN            N/A     29  27  92 CALM      30.14R
$$

MTZ008-052>055-162000-
SOUTHWEST MONTANA

CITY           SKY/WX    TMP DP  RH WIND       PRES   REMARKS
BOZEMAN        SNOW      31  29  92 W8        29.96S VSB 1/2 WCI  23
DILLON         FLURRIES  30  26  85 NE7       29.95S WCI  23
W YELLOWSTONE  LGT SNOW  25  23  93 S6        29.86F VSB 3/4 WCI  18
ENNIS          CLOUDY    28  25  86 N16G22    29.97S FOG     WCI  17
THREE FORKS      N/A     31  29  92 CALM      29.96S
$$

MTZ009-010-012-014-046-048-049-054-162000-
EAST SLOPES AND CENTRAL MONTANA

CITY           SKY/WX    TMP DP  RH WIND       PRES   REMARKS
CUT BANK       LGT SNOW  28  27  96 SW7       29.99F FOG     WCI  21
GREAT FALLS    PTSUNNY   31  26  82 SE7       30.01S WCI  24
MALMSTROM AFB  FLURRIES  30  28  92 S6        30.02S WCI  24
HELENA         CLOUDY    34  25  69 NW8       30.00R WCI  27
BOWMANS CRNR   FAIR      28  28  98 S7        29.97  WCI  21
CHOTEAU          N/A     30  27  86 E3        30.02S
FAIRFIELD      FAIR      32  25  74 S3        30.00S
POWER          PTSUNNY   30  25  83 S3        30.00S
RAYNESFORD     PTSUNNY   29  26  86 SE6       30.00R WCI  23
ULM            PTSUNNY   30  29  95 CALM      30.01S
$$

MTZ011-013-016-021-045-047-050-051-162000-
NORTH CENTRAL MONTANA

CITY           SKY/WX    TMP DP  RH WIND       PRES   REMARKS
HAVRE          CLOUDY    31  29  92 SW3       30.03S
LEWISTOWN      LGT SNOW  30  27  88 NW5       29.97S FOG
N BAR RANCH    FAIR      32  19  59 N5        29.98S
CHINOOK          N/A     34  30  86 W6        30.03S WCI  29
DENTON         PTSUNNY   33  26  75 CALM      29.97S
GEYSER         LGT SNOW  29  27  91 CALM      29.99S VSB 7/8
GRASS RANGE    PTSUNNY   34  23  62 CALM      29.95S
STANFORD       SNOWSHWR  27  26  95 W3        29.98S
WINIFRED       FAIR      33  28  82 NW3       29.98F
$$

MTZ017>020-022>027-061-062-162000-
NORTHEAST MONTANA

CITY           SKY/WX    TMP DP  RH WIND       PRES   REMARKS
GLENDIVE       CLOUDY    35  22  58 NW9       29.99S WCI  28
JORDAN           N/A     36  25  64 NW10      29.98F WCI  28
SIDNEY         FAIR      37  22  54 NW13      29.97F WCI  29
WOLF POINT     FAIR      31  25  78 SW6       29.99F WCI  25
MALTA          PTSUNNY   36  30  80 W12       30.01R WCI  27
PLENTYWOOD       N/A     34  19  55 W14       29.92S WCI  24
POPLAR           N/A     30  21  69 SW7       29.98F WCI  23
SCOBEY           N/A     35  14  42 W15       29.92F WCI  25
$$

MTZ028>42-056>058-162000-
SOUTHCENTRAL AND SOUTHEAST MONTANA

CITY           SKY/WX    TMP DP  RH WIND       PRES   REMARKS
BAKER          FAIR      32  28  85 W9        29.96F WCI  24
BILLINGS       LGT SNOW  31  30  96 NE8       29.98S VSB 1   WCI  23
LIVINGSTON     LGT SNOW  30  30 100 E15       29.92S VSB 3/4 WCI  19
MILES CITY     FAIR      36  28  73 W7        30.00S WCI  30
BIG TIMBER     FOG       27  27 100 E13       29.98S VSB 3/4 WCI  16
EKALAKA          N/A     32  22  67 NW8       29.94S WCI  25
FORSYTH          N/A     36  30  80 CALM      30.00S
LAUREL         FOG       30  30 100 NE8       29.99S VSB 1   WCI  23
ROUNDUP          N/A     33  26  76 N3        29.90F
$$

REGIONAL REPORTS...DAKOTAS

CITY           SKY/WX    TMP DP  RH WIND       PRES   REMARKS
WILLISTON      FAIR      36  23  59 W8        29.95S WCI  30
MINOT          FAIR      40  28  62 W14       29.89S
DICKINSON      FAIR      33  25  72 NW10      29.92S WCI  25
BEACH          FAIR      32  27  80 NW9       29.99F WCI  24
CROSBY         FAIR      36  21  55 W15       29.91F WCI  26
TIOGA          FAIR      30  27  86 W12       29.92S WCI  21
WATFORD CITY   FAIR      34  25  69 W10       29.95R WCI  26
BISMARCK       PTSUNNY   40  33  76 NW12      29.94R
GRAND FORKS    CLOUDY    28  24  85 NW7       29.89S WCI  21
FARGO          CLOUDY    30  26  85 SW5       29.91R
BUFFALO SD       N/A     36  25  64 NW16      29.88F WCI  26
RAPID CITY     CLOUDY    37  28  70 N20       29.94F WCI  27
$$

REGIONAL REPORTS...WYOMING/IDAHO/WASHINGTON

CITY           SKY/WX    TMP DP  RH WIND       PRES   REMARKS
GILLETTE       CLOUDY    31  27  85 NE10      29.93F FOG     WCI  22
SHERIDAN       SNOW      31  29  92 NE5       29.95F VSB 1/2
BUFFALO WY     LGT SNOW  31  26  82 NE7       29.92F VSB 1   WCI  24
CODY           LGT SNOW  32  28  86 N10       29.87S VSB 1   WCI  24
YELLOWSTONE LA   N/A     22  19  89 CALM      29.84F
IDAHO FALLS    CLOUDY    24  21  88 S12       29.96F FOG     WCI  13
BOISE          FAIR      30  24  78 NW9       30.11S WCI  22
SPOKANE        CLOUDY    25  24  96 E6        30.23S FOG     WCI  18
$$

REGIONAL REPORTS...ALBERTA

CITY           SKY/WX    TMP DP  RH WIND       PRES   REMARKS
EDMONTON       SUNNY     32  16  51 W15G21    29.88F WCI  22
CALGARY        MOSUNNY   34   7  32 W8G17     29.93F WCI  27
LETHBRIDGE     LGT SNOW  30  27  86 S12       30.01F WCI  21
MEDICINE HAT   PTSUNNY   37  30  75 SW7       30.00F
$$

REGIONAL REPORTS...SASKATCHEWAN

CITY           SKY/WX    TMP DP  RH WIND       PRES   REMARKS
SWIFT CURRENT  MOSUNNY   30  16  55 W20G26    29.90S WCI  18
REGINA         MOSUNNY   32  21  64 W17       29.85F WCI  21
SASKATOON      PTSUNNY   32  23  69 W15G23    29.82S WCI  22
$$




USA.gov is the U.S. government's official web portal to all federal, state and local government web resources and services.